FW8061 Weather Reports


time (UTC)temp
C
wind
direction
speed
KPH
gust
KPH
rain 1hr
cm
rain 24hr
cm
rain mn
cm
humidity
%
barometer
mb
20260508181038 10 280 6.4 17.7 0.00 0.00 0.00 48 1009.2
20260508180017 10 253 4.8 16.1 0.00 0.00 0.00 48 1009.2
20260508175018 10 303 6.4 19.3 0.00 0.00 0.00 46 1009.2
20260508174018 11 285 6.4 16.1 0.00 0.00 0.00 46 1009.2
20260508173018 10 262 6.4 12.9 0.00 0.00 0.00 48 1009.2
20260508172021 10 292 6.4 16.1 0.00 0.00 0.00 49 1009.3
20260508171040 10 267 6.4 16.1 0.00 0.00 0.00 50 1009.3
20260508170019 9 218 6.4 12.9 0.00 0.00 0.00 51 1009.3
20260508165038 9 306 4.8 11.3 0.00 0.00 0.00 51 1009.3
20260508164020 9 265 4.8 11.3 0.00 0.00 0.00 50 1009.4
20260508162019 9 224 3.2 9.7 0.00 0.00 0.00 50 1009.4
20260508161020 9 298 6.4 11.3 0.00 0.00 0.00 49 1009.4
20260508160021 9 307 4.8 12.9 0.00 0.00 0.00 49 1009.4
20260508155017 9 327 6.4 12.9 0.00 0.00 0.00 49 1009.4
20260508154020 10 257 3.2 12.9 0.00 0.00 0.00 48 1009.4
20260508153040 10 273 4.8 12.9 0.00 0.00 0.00 47 1009.5
20260508152017 10 307 8.0 14.5 0.00 0.00 0.00 49 1009.6
20260508151021 9 299 4.8 12.9 0.00 0.00 0.00 51 1009.7
20260508150019 8 270 4.8 14.5 0.00 0.00 0.00 54 1009.6
20260508145019 8 322 6.4 14.5 0.00 0.00 0.00 56 1009.6
20260508144021 8 292 4.8 12.9 0.00 0.00 0.00 58 1009.7
20260508143018 8 301 4.8 9.7 0.00 0.00 0.00 59 1009.7
20260508142018 8 298 6.4 16.1 0.00 0.00 0.00 59 1009.7
20260508141018 8 319 4.8 11.3 0.00 0.00 0.00 60 1009.8
20260508140018 7 301 3.2 9.7 0.00 0.00 0.00 62 1009.8
20260508135039 7 314 4.8 9.7 0.00 0.00 0.00 63 1009.7
20260508134022 7 322 6.4 12.9 0.00 0.00 0.00 63 1009.7
20260508133022 8 321 6.4 11.3 0.00 0.00 0.00 63 1009.7
20260508132108 8 312 4.8 11.3 0.00 0.00 0.00 64 1009.7
20260508131029 7 318 4.8 6.4 0.00 0.00 0.00 65 1009.6
20260508130042 7 324 4.8 14.5 0.00 0.00 0.00 65 1009.6
20260508125023 7 308 4.8 9.7 0.00 0.00 0.00 66 1009.6
20260508124023 7 327 4.8 11.3 0.00 0.00 0.00 67 1009.5
20260508123017 7 327 4.8 9.7 0.00 0.00 0.00 69 1009.5
20260508122109 7 260 3.2 6.4 0.00 0.00 0.00 64 1009.4
20260508121029 7 284 3.2 6.4 0.00 0.00 0.00 71 1009.5
20260508120029 7 203 1.6 4.8 0.00 0.00 0.00 74 1009.5
20260508115029 7 203 3.2 4.8 0.00 0.00 0.00 74 1009.5
20260508114029 6 219 3.2 4.8 0.00 0.00 0.00 74 1009.4
20260508113050 6 221 1.6 4.8 0.00 0.00 0.00 75 1009.3
20260508112031 6 209 3.2 8.0 0.00 0.00 0.00 76 1009.2
20260508111030 6 209 3.2 3.2 0.00 0.00 0.00 78 1009.2
20260508110032 6 234 1.6 3.2 0.00 0.00 0.00 78 1009.1
20260508105030 5 221 1.6 3.2 0.00 0.00 0.00 79 1009.0
20260508104031 5 213 1.6 3.2 0.00 0.00 0.00 80 1008.9
20260508103031 5 229 0.0 3.2 0.00 0.00 0.00 79 1008.8
20260508102051 5 289 1.6 1.6 0.00 0.00 0.00 80 1008.7
20260508101031 5 229 1.6 1.6 0.00 0.00 0.00 79 1008.7
20260508100031 5 219 1.6 1.6 0.00 0.00 0.00 80 1008.6
20260508095032 5 276 1.6 1.6 0.00 0.00 0.00 78 1008.5
20260508094031 5 200 1.6 3.2 0.00 0.00 0.00 78 1008.4
20260508093017 5 199 1.6 3.2 0.00 0.00 0.00 79 1008.4
20260508092032 5 225 1.6 1.6 0.00 0.00 0.00 78 1008.5
20260508091032 5 213 1.6 1.6 0.00 0.00 0.00 77 1008.5
20260508090017 5 227 1.6 1.6 0.00 0.00 0.00 74 1008.5
20260508085058 6 204 1.6 1.6 0.00 0.00 0.00 74 1008.5
20260508084017 6 301 1.6 3.2 0.00 0.00 0.00 74 1008.6
20260508083033 6 332 3.2 3.2 0.00 0.00 0.00 74 1008.6
20260508082018 6 343 3.2 4.8 0.00 0.00 0.00 73 1008.6
20260508081018 6 334 3.2 4.8 0.00 0.00 0.00 74 1008.7
20260508080039 6 218 1.6 3.2 0.00 0.00 0.00 73 1008.5
20260508075018 6 226 1.6 3.2 0.00 0.00 0.00 74 1008.3
20260508074020 6 199 1.6 1.6 0.00 0.00 0.00 74 1008.2
20260508073019 6 354 1.6 1.6 0.00 0.00 0.00 73 1008.2
20260508072019 6 281 1.6 1.6 0.00 0.00 0.00 73 1008.2
20260508071020 6 0.0 0.0 0.00 0.00 0.00 73 1008.2
20260508070019 7 0.0 0.0 0.00 0.00 0.00 72 1008.3
20260508065019 7 0.0 0.0 0.00 0.00 0.00 72 1008.3
20260508064019 7 0.0 0.0 0.00 0.00 0.00 71 1008.3
20260508063019 7 179 0.0 1.6 0.00 0.00 0.00 71 1008.3
20260508062019 7 0.0 0.0 0.00 0.00 0.00 70 1008.4
20260508061100 7 190 0.0 1.6 0.00 0.00 0.00 70 1008.5
20260508060020 7 247 0.0 1.6 0.00 0.00 0.00 70 1008.6
20260508055020 7 0.0 0.0 0.00 0.00 0.00 67 1008.5
20260508054020 7 264 0.0 3.2 0.00 0.00 0.00 66 1008.6
20260508053018 7 0 3.2 4.8 0.00 0.00 0.00 66 1008.6
20260508052018 7 336 3.2 6.4 0.00 0.00 0.00 63 1008.6
20260508051040 7 336 1.6 4.8 0.00 0.00 0.00 62 1008.6
20260508050019 7 344 1.6 6.4 0.00 0.00 0.00 62 1008.6
20260508045019 7 340 1.6 6.4 0.00 0.00 0.00 63 1008.7
20260508044019 7 346 3.2 4.8 0.00 0.00 0.00 63 1008.7
20260508043019 7 343 3.2 3.2 0.00 0.00 0.00 63 1008.7
20260508042019 8 335 1.6 4.8 0.00 0.00 0.00 63 1008.7
20260508041019 8 344 1.6 3.2 0.00 0.00 0.00 62 1008.6
20260508040017 7 324 3.2 6.4 0.00 0.00 0.00 65 1008.6
20260508035021 8 333 1.6 3.2 0.00 0.00 0.00 65 1008.6
20260508034019 8 346 1.6 3.2 0.00 0.00 0.00 62 1008.6
20260508033017 8 352 1.6 4.8 0.00 0.00 0.00 61 1008.6
20260508032041 8 347 3.2 4.8 0.00 0.00 0.00 60 1008.6
20260508031017 8 344 3.2 4.8 0.00 0.00 0.00 60 1008.6
20260508030018 8 342 3.2 6.4 0.00 0.00 0.00 60 1008.6
20260508025017 8 351 3.2 6.4 0.00 0.00 0.00 61 1008.6
20260508024018 8 348 3.2 4.8 0.00 0.00 0.00 61 1008.7
20260508023018 8 348 3.2 4.8 0.00 0.00 0.00 59 1008.7
20260508022019 8 342 3.2 6.4 0.00 0.00 0.00 58 1008.6
20260508021018 8 348 3.2 6.4 0.00 0.00 0.00 57 1008.6
20260508020018 8 340 3.2 6.4 0.00 0.00 0.00 59 1008.6
20260508015019 8 344 3.2 4.8 0.00 0.00 0.00 58 1008.5
20260508014019 9 342 3.2 4.8 0.00 0.00 0.00 56 1008.4
20260508013020 9 329 3.2 8.0 0.00 0.00 0.00 56 1008.4
20260508012019 8 335 3.2 8.0 0.00 0.00 0.00 56 1008.3
20260508011016 9 321 1.6 3.2 0.00 0.00 0.00 56 1008.3
20260508010039 9 317 3.2 4.8 0.00 0.00 0.00 54 1008.3
20260508005020 9 326 3.2 4.8 0.00 0.00 0.00 52 1008.2
20260508004037 10 326 4.8 8.0 0.00 0.00 0.00 51 1008.1
20260508003020 10 326 4.8 8.0 0.00 0.00 0.00 50 1008.0
20260508002020 10 324 6.4 12.9 0.00 0.00 0.00 49 1007.9
20260508001019 10 321 6.4 12.9 0.00 0.00 0.00 47 1007.9
20260508000017 10 319 6.4 12.9 0.00 0.00 0.00 47 1007.8
20260507235018 10 323 8.0 17.7 0.00 0.00 0.00 47 1007.8
20260507234018 10 299 4.8 12.9 0.00 0.00 0.00 45 1007.7
20260507233018 10 329 6.4 12.9 0.00 0.00 0.00 46 1007.7
20260507232018 11 320 8.0 14.5 0.00 0.00 0.00 45 1007.6
20260507231018 11 318 4.8 11.3 0.00 0.00 0.00 44 1007.6
20260507230019 11 328 8.0 14.5 0.00 0.00 0.00 44 1007.6
20260507225019 11 319 9.7 19.3 0.00 0.00 0.00 44 1007.6
20260507224019 10 322 6.4 14.5 0.00 0.00 0.00 47 1007.6
20260507223019 10 306 9.7 19.3 0.00 0.00 0.00 47 1007.7
20260507222019 10 326 8.0 14.5 0.00 0.00 0.00 46 1007.7
20260507221020 11 282 8.0 17.7 0.00 0.00 0.00 45 1007.6
20260507220058 11 314 8.0 16.1 0.00 0.00 0.00 46 1007.6
20260507215040 10 318 8.0 16.1 0.00 0.00 0.00 46 1007.5
20260507214020 10 297 8.0 16.1 0.00 0.00 0.00 46 1007.5
20260507213017 11 316 6.4 14.5 0.00 0.00 0.00 45 1007.4
20260507212020 11 293 9.7 17.7 0.00 0.00 0.00 44 1007.3
20260507211019 11 299 9.7 24.1 0.00 0.00 0.00 44 1007.3
20260507210018 11 298 12.9 25.7 0.00 0.00 0.00 43 1007.3
20260507205019 11 305 9.7 24.1 0.00 0.00 0.00 44 1007.2
20260507204039 11 317 11.3 25.7 0.00 0.00 0.00 42 1007.1
20260507203018 11 313 9.7 20.9 0.00 0.00 0.00 47 1007.0
20260507202018 11 323 9.7 24.1 0.00 0.00 0.00 47 1007.0
20260507201019 11 306 9.7 22.5 0.00 0.00 0.00 46 1007.1
20260507200020 11 313 8.0 22.5 0.00 0.00 0.00 45 1007.0
20260507195019 11 308 9.7 19.3 0.00 0.00 0.00 44 1007.1
20260507194020 11 304 11.3 24.1 0.00 0.00 0.00 46 1007.2
20260507193019 11 311 11.3 22.5 0.00 0.00 0.00 47 1007.1
20260507192019 11 307 8.0 16.1 0.00 0.00 0.00 47 1007.1
20260507191019 10 307 9.7 22.5 0.00 0.00 0.00 48 1007.2
20260507190039 10 303 9.7 27.4 0.00 0.00 0.00 45 1007.2
20260507185041 10 318 8.0 17.7 0.00 0.00 0.00 45 1007.2
20260507184017 11 264 6.4 14.5 0.00 0.00 0.00 44 1007.1
20260507183017 11 293 6.4 17.7 0.00 0.00 0.00 45 1007.1
20260507182041 10 299 8.0 19.3 0.00 0.00 0.00 46 1007.1